User: anonymous   Login
Location: Unspecified
(0.0000°N, 0.0000°E)
Time: 05:48:56
(UTC+00:00)
Language:

STARLINK-32090 - Orbit

View from above orbital plane
View from above orbital plane
View from above satellite
View from above satellite

Ground track
Ground track

The orbit is defined by the following mean orbital elements,

1 59691U          26145.56029899 +.00000000 +00000-0 +61390-4 0 00002
2 59691  43.0048 349.6471 0001274 255.3986 104.6725 15.27578582    02
Epoch (UTC): 25 May 2026 13:26:49
Eccentricity: 0.0001274
inclination: 43.0048°
perigee height: 482 km
apogee height: 484 km
right ascension of ascending node: 349.6471°
argument of perigee: 255.3986°
revolutions per day: 15.27578582
mean anomaly at epoch: 104.6725°

The dashed part of the orbit path shows where the satellite is in the earth's shadow,  

DLR